カタログに戻る

STARLINK-4775

運用中通信VLEO
NORAD 53934·PAYLOAD·🇺🇸 United States

打ち上げ Sep 24, 2022 から Cape Canaveral Space Force Station

Loading…

次のパス (今後24時間)

TLE

最新Source: CelesTrak SupGP

元期: Sep 15, 2026, 01:49 UTC

1 53934C 22119BA  26258.07618056 -.00021148  00000+0 -13264-2 0  2588
2 53934  53.1576 168.3531 0001618  88.5744 338.9366 15.08839012    18

AllMySatでSTARLINK-4775をリアルタイム追跡

Download on the App Store